sat.trackr.live / text

‹ back to catalog

STARLINK-11506 [DTC]

NORAD 62466 · 2024-254E

PAYLOAD ACTIVE UNKNOWN

§ Identity

Operator
Country
US
Launch date
2024-12-31
Launch site
AFETR
Launch vehicle
Mass (kg)
RCS (m²)

Purposes: comms

External: N2YO · Heavens-Above · Gunter

§ Orbital elements

Epoch: 2026-05-24T23:30:27.054720Z

Period
91.67 min
Inclination
42.9986°
Eccentricity
0.0001739
Mean motion
15.70879731 rev/d
Perigee alt
355.2 km
Apogee alt
357.6 km
Semi-major
6,734.5 km
B*
1.1390e-3
RAAN
122.7726°
Arg perigee
217.5792°
Mean anomaly
142.4954°
Rev number
8,124

§ Raw data

STARLINK-11506 [DTC]1 62466U 24254E   26144.97947980  .00148595  00000+0  11390-2 0  99982 62466  42.9986 122.7726 0001739 217.5792 142.4954 15.70879731 81246

JSON: /api/v1/satellites/62466 · /tle

For live sub-satellite position, see the globe view (requires WebGL).

§ Visibility from observer

Set your observer location to see the next 7 days of passes ≥ 10°. The values pass through the URL so the page stays shareable.

No JS? Fill the form by hand. The geolocation button needs JavaScript.